| time (UTC) | temp C | wind direction | speed KPH | gust KPH | rain 1hr cm | rain 24hr cm | rain mn cm | humidity % | barometer mb |
| 20260510124451 | 15 | 314 | 1.6 | 6.4 | 0.00 | 0.00 | 0.00 | 93 | 1013.2 |
| 20260510122951 | 14 | 46 | 1.6 | 4.8 | 0.00 | 0.00 | 0.00 | 96 | 1013.0 |
| 20260510121450 | 13 | 289 | 0.0 | 1.6 | 0.00 | 0.00 | 0.00 | 96 | 1013.0 |
| 20260510115954 | 12 | 94 | 0.0 | 1.6 | 0.00 | 0.00 | 0.00 | 96 | 1012.8 |
| 20260510114451 | 12 | 94 | 0.0 | 3.2 | 0.00 | 0.00 | 0.00 | 96 | 1012.5 |
| 20260510112951 | 11 | 88 | 0.0 | 3.2 | 0.00 | 0.00 | 0.00 | 96 | 1012.3 |
| 20260510111451 | 11 | 254 | 0.0 | 1.6 | 0.00 | 0.00 | 0.00 | 95 | 1012.2 |
| 20260510105955 | 11 | 66 | 1.6 | 6.4 | 0.00 | 0.00 | 0.00 | 95 | 1012.1 |
| 20260510104451 | 10 | 60 | 3.2 | 9.7 | 0.00 | 0.00 | 0.00 | 95 | 1012.2 |
| 20260510102950 | 10 | 96 | 1.6 | 3.2 | 0.00 | 0.00 | 0.00 | 95 | 1011.8 |
| 20260510101451 | 10 | 39 | 0.0 | 1.6 | 0.00 | 0.00 | 0.00 | 95 | 1011.7 |
| 20260510094451 | 10 | 39 | 0.0 | 1.6 | 0.00 | 0.00 | 0.00 | 95 | 1011.4 |
| 20260510092951 | 9 | 39 | 0.0 | 1.6 | 0.00 | 0.00 | 0.00 | 95 | 1011.3 |
| 20260510091451 | 9 | 39 | 0.0 | 0.0 | 0.00 | 0.00 | 0.00 | 94 | 1011.2 |
| 20260510085955 | 10 | 39 | 0.0 | 1.6 | 0.00 | 0.00 | 0.00 | 94 | 1011.2 |
| 20260510082951 | 10 | 164 | 3.2 | 9.7 | 0.00 | 0.00 | 0.00 | 95 | 1011.0 |
| 20260510081451 | 10 | 154 | 4.8 | 19.3 | 0.00 | 0.00 | 0.00 | 95 | 1010.9 |
| 20260510075955 | 10 | 95 | 0.0 | 1.6 | 0.00 | 0.00 | 0.00 | 94 | 1010.5 |
| 20260510072951 | 10 | 151 | 0.0 | 0.0 | 0.00 | 0.00 | 0.00 | 93 | 1010.5 |
| 20260510071451 | 10 | 151 | 0.0 | 1.6 | 0.00 | 0.00 | 0.00 | 94 | 1010.4 |
| 20260510065953 | 10 | 117 | 0.0 | 1.6 | 0.00 | 0.00 | 0.00 | 94 | 1010.4 |
| 20260510064451 | 10 | 105 | 0.0 | 3.2 | 0.00 | 0.00 | 0.00 | 94 | 1010.2 |
| 20260510052952 | 11 | 212 | 0.0 | 0.0 | 0.00 | 0.00 | 0.00 | 93 | 1010.5 |
| 20260510051453 | 11 | 188 | 0.0 | 0.0 | 0.00 | 0.00 | 0.00 | 93 | 1010.6 |
| 20260510045954 | 11 | 147 | 0.0 | 1.6 | 0.00 | 0.00 | 0.00 | 93 | 1010.6 |
| 20260510044451 | 11 | 181 | 3.2 | 6.4 | 0.00 | 0.00 | 0.00 | 93 | 1010.5 |
| 20260510042951 | 11 | 174 | 1.6 | 6.4 | 0.00 | 0.00 | 0.00 | 93 | 1010.7 |
| 20260510041450 | 11 | 161 | 0.0 | 4.8 | 0.00 | 0.00 | 0.00 | 93 | 1010.7 |
| 20260510034451 | 11 | 178 | 0.0 | 0.0 | 0.00 | 0.00 | 0.00 | 92 | 1010.9 |
| 20260510032951 | 11 | 166 | 0.0 | 0.0 | 0.00 | 0.00 | 0.00 | 92 | 1010.8 |
| 20260510031451 | 11 | 153 | 0.0 | 0.0 | 0.00 | 0.00 | 0.00 | 92 | 1010.7 |
| 20260510024452 | 11 | 170 | 0.0 | 1.6 | 0.00 | 0.00 | 0.00 | 91 | 1010.3 |
| 20260510022951 | 11 | 166 | 0.0 | 1.6 | 0.00 | 0.00 | 0.00 | 91 | 1010.4 |
| 20260510021451 | 11 | 151 | 0.0 | 3.2 | 0.00 | 0.00 | 0.00 | 91 | 1010.5 |
| 20260510014451 | 12 | 199 | 0.0 | 3.2 | 0.00 | 0.00 | 0.00 | 91 | 1010.2 |
| 20260510012951 | 12 | 184 | 1.6 | 4.8 | 0.00 | 0.00 | 0.00 | 90 | 1010.1 |
| 20260510011451 | 12 | 156 | 0.0 | 3.2 | 0.00 | 0.00 | 0.00 | 90 | 1010.0 |
| 20260510005954 | 12 | 190 | 0.0 | 3.2 | 0.00 | 0.00 | 0.00 | 90 | 1009.9 |
| 20260510004451 | 12 | 161 | 1.6 | 4.8 | 0.00 | 0.00 | 0.00 | 89 | 1009.7 |
| 20260510002951 | 12 | 206 | 0.0 | 3.2 | 0.00 | 0.00 | 0.00 | 89 | 1009.7 |
| 20260510001452 | 12 | 207 | 0.0 | 1.6 | 0.00 | 0.00 | 0.00 | 87 | 1009.6 |
| 20260509235955 | 13 | 195 | 0.0 | 3.2 | 0.00 | 0.00 | 0.00 | 86 | 1009.6 |
| 20260509234451 | 13 | 193 | 1.6 | 4.8 | 0.00 | 0.00 | 0.00 | 85 | 1009.8 |
| 20260509232951 | 14 | 177 | 1.6 | 4.8 | 0.00 | 0.00 | 0.00 | 84 | 1009.6 |
| 20260509231452 | 14 | 169 | 1.6 | 4.8 | 0.00 | 0.00 | 0.00 | 82 | 1009.6 |
| 20260509224451 | 15 | 182 | 3.2 | 8.0 | 0.00 | 0.00 | 0.00 | 80 | 1009.4 |
| 20260509222951 | 15 | 184 | 1.6 | 8.0 | 0.00 | 0.00 | 0.00 | 81 | 1009.7 |
| 20260509221451 | 15 | 153 | 1.6 | 6.4 | 0.00 | 0.00 | 0.00 | 81 | 1009.7 |
| 20260509214449 | 15 | 158 | 1.6 | 4.8 | 0.00 | 0.00 | 0.00 | 82 | 1009.5 |
| 20260509212951 | 14 | 117 | 3.2 | 6.4 | 0.00 | 0.00 | 0.00 | 82 | 1009.7 |
| 20260509211452 | 14 | 115 | 3.2 | 8.0 | 0.00 | 0.00 | 0.00 | 82 | 1009.5 |
| 20260509205955 | 14 | 83 | 6.4 | 11.3 | 0.00 | 0.00 | 0.00 | 82 | 1009.7 |
| 20260509204451 | 15 | 82 | 3.2 | 9.7 | 0.00 | 0.00 | 0.00 | 80 | 1009.7 |
| 20260509202951 | 15 | 121 | 1.6 | 4.8 | 0.00 | 0.00 | 0.00 | 80 | 1009.6 |
| 20260509201451 | 15 | 82 | 1.6 | 4.8 | 0.00 | 0.00 | 0.00 | 77 | 1009.8 |
| 20260509195953 | 15 | 84 | 3.2 | 8.0 | 0.00 | 0.00 | 0.00 | 76 | 1009.7 |
| 20260509194451 | 15 | 127 | 4.8 | 11.3 | 0.00 | 0.00 | 0.00 | 79 | 1009.7 |
| 20260509192951 | 14 | 69 | 6.4 | 14.5 | 0.00 | 0.00 | 0.00 | 81 | 1009.9 |
| 20260509191451 | 13 | 86 | 8.0 | 16.1 | 0.00 | 0.00 | 0.00 | 82 | 1010.2 |
| 20260509185955 | 13 | 72 | 6.4 | 9.7 | 0.00 | 0.00 | 0.00 | 83 | 1010.4 |
| 20260509184451 | 13 | 75 | 8.0 | 14.5 | 0.00 | 0.00 | 0.00 | 82 | 1010.8 |
| 20260509182951 | 13 | 43 | 6.4 | 14.5 | 0.00 | 0.00 | 0.00 | 78 | 1011.0 |
| 20260509181451 | 14 | 56 | 8.0 | 17.7 | 0.00 | 0.00 | 0.00 | 77 | 1010.9 |
| 20260509175954 | 14 | 73 | 8.0 | 16.1 | 0.00 | 0.00 | 0.00 | 78 | 1011.1 |
| 20260509174451 | 14 | 72 | 4.8 | 11.3 | 0.00 | 0.00 | 0.00 | 80 | 1011.1 |
| 20260509172951 | 14 | 51 | 3.2 | 12.9 | 0.00 | 0.00 | 0.00 | 81 | 1011.1 |
| 20260509171451 | 15 | 73 | 1.6 | 11.3 | 0.00 | 0.00 | 0.00 | 79 | 1011.5 |
| 20260509165954 | 15 | 53 | 1.6 | 6.4 | 0.00 | 0.00 | 0.00 | 74 | 1011.2 |
| 20260509164452 | 15 | 299 | 0.0 | 0.0 | 0.00 | 0.00 | 0.00 | 74 | 1011.1 |
| 20260509162951 | 15 | 299 | 0.0 | 3.2 | 0.00 | 0.00 | 0.00 | 73 | 1011.1 |
| 20260509161450 | 15 | 262 | 1.6 | 3.2 | 0.00 | 0.00 | 0.00 | 71 | 1011.0 |
| 20260509155956 | 15 | 328 | 0.0 | 4.8 | 0.00 | 0.00 | 0.00 | 73 | 1011.2 |
| 20260509154451 | 15 | 352 | 1.6 | 3.2 | 0.00 | 0.00 | 0.00 | 76 | 1011.7 |
| 20260509152951 | 15 | 283 | 1.6 | 4.8 | 0.00 | 0.00 | 0.00 | 76 | 1012.1 |
| 20260509151451 | 15 | 338 | 1.6 | 4.8 | 0.00 | 0.00 | 0.00 | 77 | 1012.0 |
| 20260509145953 | 15 | 288 | 6.4 | 11.3 | 0.00 | 0.00 | 0.00 | 77 | 1012.2 |
| 20260509144451 | 15 | 309 | 8.0 | 17.7 | 0.00 | 0.00 | 0.00 | 77 | 1012.0 |
| 20260509142951 | 15 | 297 | 8.0 | 16.1 | 0.00 | 0.00 | 0.00 | 77 | 1011.9 |
| 20260509141451 | 15 | 318 | 9.7 | 20.9 | 0.00 | 0.00 | 0.00 | 76 | 1011.8 |
| 20260509135954 | 15 | 319 | 11.3 | 25.7 | 0.00 | 0.00 | 0.00 | 76 | 1011.6 |
| 20260509134451 | 15 | 278 | 9.7 | 22.5 | 0.00 | 0.00 | 0.00 | 78 | 1011.5 |
| 20260509132950 | 15 | 301 | 8.0 | 16.1 | 0.00 | 0.00 | 0.00 | 79 | 1011.5 |
| 20260509131451 | 14 | 276 | 6.4 | 14.5 | 0.00 | 0.00 | 0.00 | 80 | 1011.4 |